CZ-2C R/B (44452 NORAD) Tracking and Keplerian Element Data

This shows tracking and keplerian element data for the satellite.

Feedback or suggestion? Click here.




ElementValue
Catalog44452
NameCZ-2C R/B
Epoch Orbit309
Epoch Day228.97760101
Epoch Year2019
RAAN203.0709
Inclination34.9784
Eccentricity0.0104539
Argument of Perigee237.1985
Mean Anonmoly121.8624
Mean Motion15.13644852
Decay Rate4.9E-07
L11 44452U 19045D 19228.97760101 .00000049 00000-0 39599-5 0 9994
L22 44452 34.9784 203.0709 0104539 237.1985 121.8624 15.13644852 3099

Live tracking and technical data element details for CZ-2C R/B (NORAD 44452). CZ-2C R/B can be tracked NOW for your location showing map with azimuth and elevation plus other details from your city location.

Track the satellite on the map from your city or location and see movement details for azimuth, elevation, latitude, longitude, range, height, and movement on the map or in text.







IsCatalogInMostPopularTable: catalog: 44452, numindb: 5
Update: records affected: 1



GetName: 44452 CZ-2C R/B

Hit Count: updated at: Wed, 21 Aug 2019 11:46:00 GMT